Year,Month,Day,Hour,Minute,Value (Times are PST for temperature in C)
2008,06,24,00,00,14.80
2008,06,24,00,01,14.80
2008,06,24,00,02,14.80
2008,06,24,00,03,14.80
2008,06,24,00,04,14.80
2008,06,24,00,05,14.80
2008,06,24,00,06,14.90
2008,06,24,00,07,14.90
2008,06,24,00,08,14.90
2008,06,24,00,09,14.90
2008,06,24,00,10,14.90
2008,06,24,00,11,14.90
2008,06,24,00,12,14.90
2008,06,24,00,13,14.90
2008,06,24,00,14,14.90
2008,06,24,00,15,14.90
2008,06,24,00,16,14.90
2008,06,24,00,17,14.90
2008,06,24,00,18,14.90
2008,06,24,00,19,14.90
2008,06,24,00,20,15.00
2008,06,24,00,21,15.00
2008,06,24,00,22,15.00
2008,06,24,00,23,15.00
2008,06,24,00,24,15.00
2008,06,24,00,25,15.00
2008,06,24,00,26,15.00
2008,06,24,00,27,15.00
2008,06,24,00,28,15.00
2008,06,24,00,29,15.00
2008,06,24,00,30,15.00
2008,06,24,00,31,15.00
2008,06,24,00,32,15.00
2008,06,24,00,33,15.00
2008,06,24,00,34,15.00
2008,06,24,00,35,15.00
2008,06,24,00,36,15.00
2008,06,24,00,37,15.00
2008,06,24,00,38,15.00
2008,06,24,00,39,15.00
2008,06,24,00,40,15.00
2008,06,24,00,41,15.00
2008,06,24,00,42,15.00
2008,06,24,00,43,15.00
2008,06,24,00,44,15.00
2008,06,24,00,45,14.90
2008,06,24,00,46,14.90
2008,06,24,00,47,14.90
2008,06,24,00,48,14.80
2008,06,24,00,49,14.80
2008,06,24,00,50,14.80
2008,06,24,00,51,14.80
2008,06,24,00,52,14.80
2008,06,24,00,53,14.80
2008,06,24,00,54,14.80
2008,06,24,00,55,14.80
2008,06,24,00,56,14.70
2008,06,24,00,57,14.70
2008,06,24,00,58,14.70
2008,06,24,00,59,14.70
2008,06,24,01,00,14.70
2008,06,24,01,01,14.70
2008,06,24,01,02,14.70
2008,06,24,01,03,14.70
2008,06,24,01,04,14.60
2008,06,24,01,05,14.60
2008,06,24,01,06,14.60
2008,06,24,01,07,14.60
2008,06,24,01,08,14.60
2008,06,24,01,09,14.70
2008,06,24,01,10,14.70
2008,06,24,01,11,14.70
2008,06,24,01,12,14.70
2008,06,24,01,13,14.70
2008,06,24,01,14,14.70
2008,06,24,01,15,14.70
2008,06,24,01,16,14.70
2008,06,24,01,17,14.70
2008,06,24,01,18,14.70
2008,06,24,01,19,14.70
2008,06,24,01,20,14.70
2008,06,24,01,21,14.70
2008,06,24,01,22,14.70
2008,06,24,01,23,14.60
2008,06,24,01,24,14.60
2008,06,24,01,25,14.60
2008,06,24,01,26,14.60
2008,06,24,01,27,14.60
2008,06,24,01,28,14.60
2008,06,24,01,29,14.60
2008,06,24,01,30,14.60
2008,06,24,01,31,14.60
2008,06,24,01,32,14.50
2008,06,24,01,33,14.50
2008,06,24,01,34,14.50
2008,06,24,01,35,14.50
2008,06,24,01,36,14.50
2008,06,24,01,37,14.40
2008,06,24,01,38,14.40
2008,06,24,01,39,14.40
2008,06,24,01,40,14.40
2008,06,24,01,41,14.40
2008,06,24,01,42,14.40
2008,06,24,01,43,14.40
2008,06,24,01,44,14.40
2008,06,24,01,45,14.40
2008,06,24,01,46,14.40
2008,06,24,01,47,14.40
2008,06,24,01,48,14.40
2008,06,24,01,49,14.40
2008,06,24,01,50,14.40
2008,06,24,01,51,14.40
2008,06,24,01,52,14.40
2008,06,24,01,53,14.40
2008,06,24,01,54,14.40
2008,06,24,01,55,14.40
2008,06,24,01,56,14.40
2008,06,24,01,57,14.30
2008,06,24,01,58,14.30
2008,06,24,01,59,14.30
2008,06,24,02,00,14.30
2008,06,24,02,01,14.30
2008,06,24,02,02,14.30
2008,06,24,02,03,14.30
2008,06,24,02,04,14.30
2008,06,24,02,05,14.30
2008,06,24,02,06,14.30
2008,06,24,02,07,14.30
2008,06,24,02,08,14.30
2008,06,24,02,09,14.20
2008,06,24,02,10,14.20
2008,06,24,02,11,14.20
2008,06,24,02,12,14.20
2008,06,24,02,13,14.20
2008,06,24,02,14,14.20
2008,06,24,02,15,14.20
2008,06,24,02,16,14.20
2008,06,24,02,17,14.20
2008,06,24,02,18,14.20
2008,06,24,02,19,14.20
2008,06,24,02,20,14.20
2008,06,24,02,21,14.20
2008,06,24,02,22,14.20
2008,06,24,02,23,14.20
2008,06,24,02,24,14.20
2008,06,24,02,25,14.20
2008,06,24,02,26,14.20
2008,06,24,02,27,14.20
2008,06,24,02,28,14.20
2008,06,24,02,29,14.20
2008,06,24,02,30,14.20
2008,06,24,02,31,14.20
2008,06,24,02,32,14.20
2008,06,24,02,33,14.20
2008,06,24,02,34,14.20
2008,06,24,02,35,14.20
2008,06,24,02,36,14.20
2008,06,24,02,37,14.20
2008,06,24,02,38,14.20
2008,06,24,02,39,14.20
2008,06,24,02,40,14.20
2008,06,24,02,41,14.20
2008,06,24,02,42,14.20
2008,06,24,02,43,14.20
2008,06,24,02,44,14.20
2008,06,24,02,45,14.20
2008,06,24,02,46,14.20
2008,06,24,02,47,14.20
2008,06,24,02,48,14.20
2008,06,24,02,49,14.10
2008,06,24,02,50,14.10
2008,06,24,02,51,14.10
2008,06,24,02,52,14.10
2008,06,24,02,53,14.10
2008,06,24,02,54,14.10
2008,06,24,02,55,14.20
2008,06,24,02,56,14.20
2008,06,24,02,57,14.20
2008,06,24,02,58,14.20
2008,06,24,02,59,14.20
2008,06,24,03,00,14.20
2008,06,24,03,01,14.20
2008,06,24,03,02,14.20
2008,06,24,03,03,14.20
2008,06,24,03,04,14.20
2008,06,24,03,05,14.20
2008,06,24,03,06,14.20
2008,06,24,03,07,14.20
2008,06,24,03,08,14.10
2008,06,24,03,09,14.10
2008,06,24,03,10,14.10
2008,06,24,03,11,14.10
2008,06,24,03,12,14.10
2008,06,24,03,13,14.10
2008,06,24,03,14,14.10
2008,06,24,03,15,14.10
2008,06,24,03,16,14.10
2008,06,24,03,17,14.10
2008,06,24,03,18,14.00
2008,06,24,03,19,14.00
2008,06,24,03,20,14.00
2008,06,24,03,21,14.00
2008,06,24,03,22,14.00
2008,06,24,03,23,13.90
2008,06,24,03,24,13.90
2008,06,24,03,25,13.90
2008,06,24,03,26,13.90
2008,06,24,03,27,13.90
2008,06,24,03,28,13.80
2008,06,24,03,29,13.60
2008,06,24,03,30,13.40
2008,06,24,03,31,13.20
2008,06,24,03,32,12.90
2008,06,24,03,33,12.80
2008,06,24,03,34,12.70
2008,06,24,03,35,12.60
2008,06,24,03,36,12.50
2008,06,24,03,37,12.40
2008,06,24,03,38,12.30
2008,06,24,03,39,12.20
2008,06,24,03,40,12.20
2008,06,24,03,41,12.20
2008,06,24,03,42,12.10
2008,06,24,03,43,12.10
2008,06,24,03,44,12.00
2008,06,24,03,45,12.00
2008,06,24,03,46,12.00
2008,06,24,03,47,11.90
2008,06,24,03,48,11.90
2008,06,24,03,49,11.90
2008,06,24,03,50,11.90
2008,06,24,03,51,11.90
2008,06,24,03,52,11.90
2008,06,24,03,53,11.80
2008,06,24,03,54,11.80
2008,06,24,03,55,11.80
2008,06,24,03,56,11.80
2008,06,24,03,57,11.80
2008,06,24,03,58,11.80
2008,06,24,03,59,11.80
2008,06,24,04,00,11.80
2008,06,24,04,01,11.80
2008,06,24,04,02,11.80
2008,06,24,04,03,11.80
2008,06,24,04,04,11.80
2008,06,24,04,05,11.80
2008,06,24,04,06,11.80
2008,06,24,04,07,11.80
2008,06,24,04,08,11.80
2008,06,24,04,09,11.80
2008,06,24,04,10,11.80
2008,06,24,04,11,11.80
2008,06,24,04,12,11.80
2008,06,24,04,13,11.80
2008,06,24,04,14,11.80
2008,06,24,04,15,11.80
2008,06,24,04,16,11.80
2008,06,24,04,17,11.90
2008,06,24,04,18,11.90
2008,06,24,04,19,11.90
2008,06,24,04,20,11.90
2008,06,24,04,21,11.90
2008,06,24,04,22,11.90
2008,06,24,04,23,11.90
2008,06,24,04,24,12.00
2008,06,24,04,25,12.00
2008,06,24,04,26,12.00
2008,06,24,04,27,12.00
2008,06,24,04,28,12.00
2008,06,24,04,29,12.10
2008,06,24,04,30,12.10
2008,06,24,04,31,12.10
2008,06,24,04,32,12.10
2008,06,24,04,33,12.10
2008,06,24,04,34,12.10
2008,06,24,04,35,12.10
2008,06,24,04,36,12.10
2008,06,24,04,37,12.10
2008,06,24,04,38,12.10
2008,06,24,04,39,12.10
2008,06,24,04,40,12.10
2008,06,24,04,41,12.10
2008,06,24,04,42,12.10
2008,06,24,04,43,12.20
2008,06,24,04,44,12.20
2008,06,24,04,45,12.10
2008,06,24,04,46,12.10
2008,06,24,04,47,12.10
2008,06,24,04,48,12.10
2008,06,24,04,49,12.10
2008,06,24,04,50,12.00
2008,06,24,04,51,12.00
2008,06,24,04,52,11.90
2008,06,24,04,53,11.90
2008,06,24,04,54,11.90
2008,06,24,04,55,11.80
2008,06,24,04,56,11.80
2008,06,24,04,57,11.80
2008,06,24,04,58,11.80
2008,06,24,04,59,11.70
2008,06,24,05,00,11.60
2008,06,24,05,01,11.60
2008,06,24,05,02,11.50
2008,06,24,05,03,11.50
2008,06,24,05,04,11.40
2008,06,24,05,05,11.40
2008,06,24,05,06,11.30
2008,06,24,05,07,11.30
2008,06,24,05,08,11.30
2008,06,24,05,09,11.20
2008,06,24,05,10,11.20
2008,06,24,05,11,11.20
2008,06,24,05,12,11.10
2008,06,24,05,13,11.10
2008,06,24,05,14,11.10
2008,06,24,05,15,11.10
2008,06,24,05,16,11.00
2008,06,24,05,17,11.00
2008,06,24,05,18,11.00
2008,06,24,05,19,11.00
2008,06,24,05,20,10.90
2008,06,24,05,21,11.00
2008,06,24,05,22,10.90
2008,06,24,05,23,11.00
2008,06,24,05,24,11.00
2008,06,24,05,25,11.00
2008,06,24,05,26,11.00
2008,06,24,05,27,11.00
2008,06,24,05,28,11.10
2008,06,24,05,29,11.10
2008,06,24,05,30,11.10
2008,06,24,05,31,11.20
2008,06,24,05,32,11.20
2008,06,24,05,33,11.20
2008,06,24,05,34,11.20
2008,06,24,05,35,11.20
2008,06,24,05,36,11.30
2008,06,24,05,37,11.30
2008,06,24,05,38,11.30
2008,06,24,05,39,11.30
2008,06,24,05,40,11.30
2008,06,24,05,41,11.30
2008,06,24,05,42,11.30
2008,06,24,05,43,11.40
2008,06,24,05,44,11.40
2008,06,24,05,45,11.40
2008,06,24,05,46,11.40
2008,06,24,05,47,11.50
2008,06,24,05,48,11.50
2008,06,24,05,49,11.50
2008,06,24,05,50,11.50
2008,06,24,05,51,11.60
2008,06,24,05,52,11.60
2008,06,24,05,53,11.60
2008,06,24,05,54,11.60
2008,06,24,05,55,11.60
2008,06,24,05,56,11.60
2008,06,24,05,57,11.60
2008,06,24,05,58,11.60
2008,06,24,05,59,11.60
2008,06,24,06,00,11.60
2008,06,24,06,01,11.60
2008,06,24,06,02,11.70
2008,06,24,06,03,11.70
2008,06,24,06,04,11.70
2008,06,24,06,05,11.70
2008,06,24,06,06,11.70
2008,06,24,06,07,11.70
2008,06,24,06,08,11.70
2008,06,24,06,09,11.70
2008,06,24,06,10,11.70
2008,06,24,06,11,11.70
2008,06,24,06,12,11.70
2008,06,24,06,13,11.70
2008,06,24,06,14,11.80
2008,06,24,06,15,11.80
2008,06,24,06,16,11.80
2008,06,24,06,17,11.80
2008,06,24,06,18,11.80
2008,06,24,06,19,11.80
2008,06,24,06,20,11.80
2008,06,24,06,21,11.80
2008,06,24,06,22,11.80
2008,06,24,06,23,11.80
2008,06,24,06,24,11.80
2008,06,24,06,25,11.80
2008,06,24,06,26,11.80
2008,06,24,06,27,11.80
2008,06,24,06,28,11.80
2008,06,24,06,29,11.90
2008,06,24,06,30,11.80
2008,06,24,06,31,11.90
2008,06,24,06,32,11.90
2008,06,24,06,33,11.90
2008,06,24,06,34,11.90
2008,06,24,06,35,11.90
2008,06,24,06,36,11.90
2008,06,24,06,37,11.90
2008,06,24,06,38,11.90
2008,06,24,06,39,11.90
2008,06,24,06,40,11.90
2008,06,24,06,41,11.90
2008,06,24,06,42,11.90
2008,06,24,06,43,11.90
2008,06,24,06,44,11.90
2008,06,24,06,45,11.90
2008,06,24,06,46,11.90
2008,06,24,06,47,11.90
2008,06,24,06,48,11.90
2008,06,24,06,49,11.90
2008,06,24,06,50,11.90
2008,06,24,06,51,11.90
2008,06,24,06,52,11.90
2008,06,24,06,53,11.90
2008,06,24,06,54,11.90
2008,06,24,06,55,11.90
2008,06,24,06,56,11.90
2008,06,24,06,57,11.90
2008,06,24,06,58,12.00
2008,06,24,06,59,12.00
2008,06,24,07,00,12.00
2008,06,24,07,01,12.00
2008,06,24,07,02,12.00
2008,06,24,07,03,12.00
2008,06,24,07,04,11.90
2008,06,24,07,05,11.90
2008,06,24,07,06,11.90
2008,06,24,07,07,11.80
2008,06,24,07,08,11.80
2008,06,24,07,09,11.80
2008,06,24,07,10,11.80
2008,06,24,07,11,11.70
2008,06,24,07,12,11.70
2008,06,24,07,13,11.70
2008,06,24,07,14,11.70
2008,06,24,07,15,11.70
2008,06,24,07,16,11.70
2008,06,24,07,17,11.70
2008,06,24,07,18,11.70
2008,06,24,07,19,11.70
2008,06,24,07,20,11.70
2008,06,24,07,21,11.70
2008,06,24,07,22,11.70
2008,06,24,07,23,11.70
2008,06,24,07,24,11.70
2008,06,24,07,25,11.70
2008,06,24,07,26,11.70
2008,06,24,07,27,11.70
2008,06,24,07,28,11.80
2008,06,24,07,29,11.80
2008,06,24,07,30,11.80
2008,06,24,07,31,11.80
2008,06,24,07,32,11.90
2008,06,24,07,33,11.90
2008,06,24,07,34,11.90
2008,06,24,07,35,11.90
2008,06,24,07,36,11.90
2008,06,24,07,37,12.00
2008,06,24,07,38,11.90
2008,06,24,07,39,11.90
2008,06,24,07,40,11.90
2008,06,24,07,41,11.90
2008,06,24,07,42,11.90
2008,06,24,07,43,11.90
2008,06,24,07,44,11.90
2008,06,24,07,45,11.90
2008,06,24,07,46,11.90
2008,06,24,07,47,11.90
2008,06,24,07,48,11.90
2008,06,24,07,49,12.00
2008,06,24,07,50,12.00
2008,06,24,07,51,12.00
2008,06,24,07,52,12.00
2008,06,24,07,53,11.90
2008,06,24,07,54,11.90
2008,06,24,07,55,11.90
2008,06,24,07,56,11.90
2008,06,24,07,57,11.90
2008,06,24,07,58,12.00
2008,06,24,07,59,12.00
2008,06,24,08,00,12.00
2008,06,24,08,01,11.90
2008,06,24,08,02,11.90
2008,06,24,08,03,11.90
2008,06,24,08,04,11.80
2008,06,24,08,05,11.80
2008,06,24,08,06,11.80
2008,06,24,08,07,11.80
2008,06,24,08,08,11.80
2008,06,24,08,09,11.80
2008,06,24,08,10,11.80
2008,06,24,08,11,11.90
2008,06,24,08,12,11.90
2008,06,24,08,13,12.00
2008,06,24,08,14,12.00
2008,06,24,08,15,12.10
2008,06,24,08,16,12.10
2008,06,24,08,17,12.10
2008,06,24,08,18,12.10
2008,06,24,08,19,12.20
2008,06,24,08,20,12.20
2008,06,24,08,21,12.20
2008,06,24,08,22,12.30
2008,06,24,08,23,12.30
2008,06,24,08,24,12.40
2008,06,24,08,25,12.40
2008,06,24,08,26,12.40
2008,06,24,08,27,12.40
2008,06,24,08,28,12.40
2008,06,24,08,29,12.40
2008,06,24,08,30,12.30
2008,06,24,08,31,12.30
2008,06,24,08,32,12.40
2008,06,24,08,33,12.40
2008,06,24,08,34,12.50
2008,06,24,08,35,12.60
2008,06,24,08,36,12.60
2008,06,24,08,37,12.70
2008,06,24,08,38,12.80
2008,06,24,08,39,12.80
2008,06,24,08,40,12.90
2008,06,24,08,41,12.90
2008,06,24,08,42,13.00
2008,06,24,08,43,13.10
2008,06,24,08,44,13.20
2008,06,24,08,45,13.30
2008,06,24,08,46,13.40
2008,06,24,08,47,13.50
2008,06,24,08,48,13.50
2008,06,24,08,49,13.50
2008,06,24,08,50,13.50
2008,06,24,08,51,13.60
2008,06,24,08,52,13.60
2008,06,24,08,53,13.60
2008,06,24,08,54,13.60
2008,06,24,08,55,13.70
2008,06,24,08,56,13.70
2008,06,24,08,57,13.80
2008,06,24,08,58,13.80
2008,06,24,08,59,13.80
2008,06,24,09,00,13.80
2008,06,24,09,01,13.70
2008,06,24,09,02,13.60
2008,06,24,09,03,13.50
2008,06,24,09,04,13.60
2008,06,24,09,05,13.60
2008,06,24,09,06,13.60
2008,06,24,09,07,13.70
2008,06,24,09,08,13.70
2008,06,24,09,09,13.70
2008,06,24,09,10,13.70
2008,06,24,09,11,13.70
2008,06,24,09,12,13.80
2008,06,24,09,13,13.80
2008,06,24,09,14,13.90
2008,06,24,09,15,13.90
2008,06,24,09,16,13.90
2008,06,24,09,17,13.90
2008,06,24,09,18,14.00
2008,06,24,09,19,14.00
2008,06,24,09,20,14.10
2008,06,24,09,21,14.10
2008,06,24,09,22,14.00
2008,06,24,09,23,14.00
2008,06,24,09,24,14.00
2008,06,24,09,25,14.10
2008,06,24,09,26,14.10
2008,06,24,09,27,14.10
2008,06,24,09,28,14.10
2008,06,24,09,29,14.10
2008,06,24,09,30,14.10
2008,06,24,09,31,14.20
2008,06,24,09,32,14.30
2008,06,24,09,33,14.40
2008,06,24,09,34,14.50
2008,06,24,09,35,14.50
2008,06,24,09,36,14.60
2008,06,24,09,37,14.60
2008,06,24,09,38,14.60
2008,06,24,09,39,14.50
2008,06,24,09,40,14.50
2008,06,24,09,41,14.60
2008,06,24,09,42,14.60
2008,06,24,09,43,14.60
2008,06,24,09,44,14.60
2008,06,24,09,45,14.60
2008,06,24,09,46,14.60
2008,06,24,09,47,14.60
2008,06,24,09,48,14.60
2008,06,24,09,49,14.60
2008,06,24,09,50,14.60
2008,06,24,09,51,14.60
2008,06,24,09,52,14.70
2008,06,24,09,53,14.70
2008,06,24,09,54,14.70
2008,06,24,09,55,14.70
2008,06,24,09,56,14.80
2008,06,24,09,57,14.80
2008,06,24,09,58,14.70
2008,06,24,09,59,14.80
2008,06,24,10,00,14.80
2008,06,24,10,01,14.90
2008,06,24,10,02,14.90
2008,06,24,10,03,15.00
2008,06,24,10,04,15.00
2008,06,24,10,05,15.00
2008,06,24,10,06,15.00
2008,06,24,10,07,15.00
2008,06,24,10,08,14.90
2008,06,24,10,09,14.70
2008,06,24,10,10,14.70
2008,06,24,10,11,14.70
2008,06,24,10,12,14.80
2008,06,24,10,13,14.80
2008,06,24,10,14,15.00
2008,06,24,10,15,15.00
2008,06,24,10,16,15.00
2008,06,24,10,17,15.00
2008,06,24,10,18,15.00
2008,06,24,10,19,15.10
2008,06,24,10,20,15.10
2008,06,24,10,21,15.10
2008,06,24,10,22,15.10
2008,06,24,10,23,15.10
2008,06,24,10,24,15.20
2008,06,24,10,25,15.00
2008,06,24,10,26,15.00
2008,06,24,10,27,15.00
2008,06,24,10,28,15.00
2008,06,24,10,29,15.00
2008,06,24,10,30,15.00
2008,06,24,10,31,15.00
2008,06,24,10,32,15.00
2008,06,24,10,33,15.00
2008,06,24,10,34,15.00
2008,06,24,10,35,15.00
2008,06,24,10,36,15.10
2008,06,24,10,37,15.20
2008,06,24,10,38,15.10
2008,06,24,10,39,15.00
2008,06,24,10,40,15.10
2008,06,24,10,41,15.30
2008,06,24,10,42,15.40
2008,06,24,10,43,15.50
2008,06,24,10,44,15.60
2008,06,24,10,45,15.60
2008,06,24,10,46,15.60
2008,06,24,10,47,15.50
2008,06,24,10,48,15.40
2008,06,24,10,49,15.30
2008,06,24,10,50,15.30
2008,06,24,10,51,15.20
2008,06,24,10,52,15.20
2008,06,24,10,53,15.10
2008,06,24,10,54,15.20
2008,06,24,10,55,15.20
2008,06,24,10,56,15.30
2008,06,24,10,57,15.40
2008,06,24,10,58,15.60
2008,06,24,10,59,15.70
2008,06,24,11,00,15.80
2008,06,24,11,01,16.00
2008,06,24,11,02,16.00
2008,06,24,11,03,16.10
2008,06,24,11,04,16.00
2008,06,24,11,05,16.00
2008,06,24,11,06,16.10
2008,06,24,11,07,16.20
2008,06,24,11,08,16.30
2008,06,24,11,09,16.40
2008,06,24,11,10,16.40
2008,06,24,11,11,16.30
2008,06,24,11,12,16.10
2008,06,24,11,13,16.10
2008,06,24,11,14,16.10
2008,06,24,11,15,16.20
2008,06,24,11,16,16.30
2008,06,24,11,17,16.30
2008,06,24,11,18,16.30
2008,06,24,11,19,16.20
2008,06,24,11,20,16.20
2008,06,24,11,21,16.10
2008,06,24,11,22,16.00
2008,06,24,11,23,16.00
2008,06,24,11,24,15.90
2008,06,24,11,25,15.90
2008,06,24,11,26,15.90
2008,06,24,11,27,15.90
2008,06,24,11,28,15.90
2008,06,24,11,29,16.00
2008,06,24,11,30,16.00
2008,06,24,11,31,15.90
2008,06,24,11,32,15.90
2008,06,24,11,33,15.90
2008,06,24,11,34,15.80
2008,06,24,11,35,15.80
2008,06,24,11,36,15.90
2008,06,24,11,37,15.80
2008,06,24,11,38,15.70
2008,06,24,11,39,15.80
2008,06,24,11,40,15.80
2008,06,24,11,41,15.80
2008,06,24,11,42,15.80
2008,06,24,11,43,15.80
2008,06,24,11,44,15.70
2008,06,24,11,45,15.60
2008,06,24,11,46,15.60
2008,06,24,11,47,15.60
2008,06,24,11,48,15.60
2008,06,24,11,49,15.50
2008,06,24,11,50,15.60
2008,06,24,11,51,15.70
2008,06,24,11,52,15.70
2008,06,24,11,53,15.80
2008,06,24,11,54,15.80
2008,06,24,11,55,15.70
2008,06,24,11,56,15.80
2008,06,24,11,57,15.90
2008,06,24,11,58,16.00
2008,06,24,11,59,16.00
2008,06,24,12,00,15.90
2008,06,24,12,01,15.60
2008,06,24,12,02,15.50
2008,06,24,12,03,15.60
2008,06,24,12,04,15.60
2008,06,24,12,05,15.60
2008,06,24,12,06,15.70
2008,06,24,12,07,15.70
2008,06,24,12,08,15.60
2008,06,24,12,09,15.60
2008,06,24,12,10,15.70
2008,06,24,12,11,15.70
2008,06,24,12,12,15.60
2008,06,24,12,13,15.60
2008,06,24,12,14,15.70
2008,06,24,12,15,15.70
2008,06,24,12,16,15.70
2008,06,24,12,17,15.90
2008,06,24,12,18,15.90
2008,06,24,12,19,15.90
2008,06,24,12,20,16.00
2008,06,24,12,21,16.00
2008,06,24,12,22,16.00
2008,06,24,12,23,16.00
2008,06,24,12,24,16.10
2008,06,24,12,25,16.20
2008,06,24,12,26,16.20
2008,06,24,12,27,16.20
2008,06,24,12,28,16.30
2008,06,24,12,29,16.30
2008,06,24,12,30,16.30
2008,06,24,12,31,16.30
2008,06,24,12,32,16.30
2008,06,24,12,33,16.40
2008,06,24,12,34,16.50
2008,06,24,12,35,16.50
2008,06,24,12,36,16.60
2008,06,24,12,37,16.60
2008,06,24,12,38,16.70
2008,06,24,12,39,16.70
2008,06,24,12,40,16.60
2008,06,24,12,41,16.70
2008,06,24,12,42,16.80
2008,06,24,12,43,16.80
2008,06,24,12,44,16.80
2008,06,24,12,45,16.80
2008,06,24,12,46,16.90
2008,06,24,12,47,16.90
2008,06,24,12,48,17.00
2008,06,24,12,49,17.10
2008,06,24,12,50,17.10
2008,06,24,12,51,17.10
2008,06,24,12,52,17.10
2008,06,24,12,53,17.00
2008,06,24,12,54,17.00
2008,06,24,12,55,17.00
2008,06,24,12,56,17.00
2008,06,24,12,57,17.20
2008,06,24,12,58,17.20
2008,06,24,12,59,17.20
2008,06,24,13,00,17.10
2008,06,24,13,01,17.00
2008,06,24,13,02,17.10
2008,06,24,13,03,17.20
2008,06,24,13,04,17.20
2008,06,24,13,05,17.20
2008,06,24,13,06,17.10
2008,06,24,13,07,17.10
2008,06,24,13,08,17.10
2008,06,24,13,09,17.10
2008,06,24,13,10,17.10
2008,06,24,13,11,17.10
2008,06,24,13,12,17.10
2008,06,24,13,13,17.10
2008,06,24,13,14,17.10
2008,06,24,13,15,17.10
2008,06,24,13,16,17.10
2008,06,24,13,17,17.10
2008,06,24,13,18,17.20
2008,06,24,13,19,17.30
2008,06,24,13,20,17.30
2008,06,24,13,21,17.30
2008,06,24,13,22,17.30
2008,06,24,13,23,17.30
2008,06,24,13,24,17.30
2008,06,24,13,25,17.40
2008,06,24,13,26,17.50
2008,06,24,13,27,17.50
2008,06,24,13,28,17.50
2008,06,24,13,29,17.50
2008,06,24,13,30,17.50
2008,06,24,13,31,17.40
2008,06,24,13,32,17.30
2008,06,24,13,33,17.30
2008,06,24,13,34,17.20
2008,06,24,13,35,17.30
2008,06,24,13,36,17.30
2008,06,24,13,37,17.40
2008,06,24,13,38,17.50
2008,06,24,13,39,17.60
2008,06,24,13,40,17.70
2008,06,24,13,41,17.70
2008,06,24,13,42,17.70
2008,06,24,13,43,17.80
2008,06,24,13,44,17.80
2008,06,24,13,45,17.80
2008,06,24,13,46,17.80
2008,06,24,13,47,17.90
2008,06,24,13,48,17.90
2008,06,24,13,49,17.90
2008,06,24,13,50,17.80
2008,06,24,13,51,17.80
2008,06,24,13,52,17.80
2008,06,24,13,53,17.80
2008,06,24,13,54,17.70
2008,06,24,13,55,17.80
2008,06,24,13,56,17.80
2008,06,24,13,57,17.80
2008,06,24,13,58,17.90
2008,06,24,13,59,18.00
2008,06,24,14,00,18.10
2008,06,24,14,01,18.10
2008,06,24,14,02,18.00
2008,06,24,14,03,17.90
2008,06,24,14,04,17.80
2008,06,24,14,05,17.90
2008,06,24,14,06,17.90
2008,06,24,14,07,17.80
2008,06,24,14,08,17.80
2008,06,24,14,09,17.80
2008,06,24,14,10,17.80
2008,06,24,14,11,17.80
2008,06,24,14,12,17.80
2008,06,24,14,13,17.90
2008,06,24,14,14,17.90
2008,06,24,14,15,17.90
2008,06,24,14,16,17.90
2008,06,24,14,17,17.90
2008,06,24,14,18,17.80
2008,06,24,14,19,17.80
2008,06,24,14,20,17.80
2008,06,24,14,21,17.80
2008,06,24,14,22,17.80
2008,06,24,14,23,17.80
2008,06,24,14,24,17.90
2008,06,24,14,25,18.10
2008,06,24,14,26,18.10
2008,06,24,14,27,18.10
2008,06,24,14,28,18.10
2008,06,24,14,29,17.90
2008,06,24,14,30,17.80
2008,06,24,14,31,17.80
2008,06,24,14,32,17.90
2008,06,24,14,33,18.00
2008,06,24,14,34,18.10
2008,06,24,14,35,18.20
2008,06,24,14,36,18.40
2008,06,24,14,37,18.40
2008,06,24,14,38,18.40
2008,06,24,14,39,18.50
2008,06,24,14,40,18.60
2008,06,24,14,41,18.70
2008,06,24,14,42,18.70
2008,06,24,14,43,18.70
2008,06,24,14,44,18.70
2008,06,24,14,45,18.80
2008,06,24,14,46,18.60
2008,06,24,14,47,18.50
2008,06,24,14,48,18.40
2008,06,24,14,49,18.40
2008,06,24,14,50,18.40
2008,06,24,14,51,18.40
2008,06,24,14,52,18.30
2008,06,24,14,53,18.40
2008,06,24,14,54,18.40
2008,06,24,14,55,18.40
2008,06,24,14,56,18.40
2008,06,24,14,57,18.40
2008,06,24,14,58,18.40
2008,06,24,14,59,18.50
2008,06,24,15,00,18.50
2008,06,24,15,01,18.60
2008,06,24,15,02,18.60
2008,06,24,15,03,18.60
2008,06,24,15,04,18.60
2008,06,24,15,05,18.60
2008,06,24,15,06,18.60
2008,06,24,15,07,18.70
2008,06,24,15,08,18.70
2008,06,24,15,09,18.80
2008,06,24,15,10,18.90
2008,06,24,15,11,18.80
2008,06,24,15,12,18.70
2008,06,24,15,13,18.70
2008,06,24,15,14,18.80
2008,06,24,15,15,18.90
2008,06,24,15,16,19.10
2008,06,24,15,17,19.20
2008,06,24,15,18,19.20
2008,06,24,15,19,19.20
2008,06,24,15,20,19.20
2008,06,24,15,21,19.10
2008,06,24,15,22,19.10
2008,06,24,15,23,19.10
2008,06,24,15,24,19.10
2008,06,24,15,25,18.90
2008,06,24,15,26,18.80
2008,06,24,15,27,18.70
2008,06,24,15,28,18.70
2008,06,24,15,29,18.80
2008,06,24,15,30,18.90
2008,06,24,15,31,18.90
2008,06,24,15,32,18.80
2008,06,24,15,33,18.90
2008,06,24,15,34,19.00
2008,06,24,15,35,19.10
2008,06,24,15,36,19.20
2008,06,24,15,37,19.10
2008,06,24,15,38,19.10
2008,06,24,15,39,19.00
2008,06,24,15,40,19.00
2008,06,24,15,41,19.00
2008,06,24,15,42,19.00
2008,06,24,15,43,19.00
2008,06,24,15,44,18.90
2008,06,24,15,45,18.70
2008,06,24,15,46,18.60
2008,06,24,15,47,18.50
2008,06,24,15,48,18.40
2008,06,24,15,49,18.40
2008,06,24,15,50,18.40
2008,06,24,15,51,18.60
2008,06,24,15,52,18.70
2008,06,24,15,53,18.70
2008,06,24,15,54,18.70
2008,06,24,15,55,18.70
2008,06,24,15,56,18.80
2008,06,24,15,57,18.80
2008,06,24,15,58,18.80
2008,06,24,15,59,18.90
2008,06,24,16,00,19.00
2008,06,24,16,01,19.10
2008,06,24,16,02,19.10
2008,06,24,16,03,19.10
2008,06,24,16,04,19.10
2008,06,24,16,05,19.10
2008,06,24,16,06,19.00
2008,06,24,16,07,18.90
2008,06,24,16,08,18.90
2008,06,24,16,09,18.90
2008,06,24,16,10,18.90
2008,06,24,16,11,18.80
2008,06,24,16,12,18.80
2008,06,24,16,13,18.80
2008,06,24,16,14,18.80
2008,06,24,16,15,18.80
2008,06,24,16,16,18.90
2008,06,24,16,17,19.00
2008,06,24,16,18,19.10
2008,06,24,16,19,19.10
2008,06,24,16,20,19.10
2008,06,24,16,21,19.20
2008,06,24,16,22,19.10
2008,06,24,16,23,19.10
2008,06,24,16,24,18.90
2008,06,24,16,25,18.90
2008,06,24,16,26,18.90
2008,06,24,16,27,19.00
2008,06,24,16,28,18.90
2008,06,24,16,29,18.80
2008,06,24,16,30,18.70
2008,06,24,16,31,18.70
2008,06,24,16,32,18.70
2008,06,24,16,33,18.70
2008,06,24,16,34,18.60
2008,06,24,16,35,18.60
2008,06,24,16,36,18.60
2008,06,24,16,37,18.60
2008,06,24,16,38,18.70
2008,06,24,16,39,18.70
2008,06,24,16,40,18.80
2008,06,24,16,41,18.80
2008,06,24,16,42,18.90
2008,06,24,16,43,18.90
2008,06,24,16,44,19.00
2008,06,24,16,45,18.90
2008,06,24,16,46,18.70
2008,06,24,16,47,18.70
2008,06,24,16,48,18.80
2008,06,24,16,49,18.90
2008,06,24,16,50,19.00
2008,06,24,16,51,19.00
2008,06,24,16,52,19.10
2008,06,24,16,53,19.20
2008,06,24,16,54,19.20
2008,06,24,16,55,19.20
2008,06,24,16,56,19.10
2008,06,24,16,57,19.10
2008,06,24,16,58,19.10
2008,06,24,16,59,19.00
2008,06,24,17,00,18.90
2008,06,24,17,01,18.80
2008,06,24,17,02,18.80
2008,06,24,17,03,18.90
2008,06,24,17,04,19.00
2008,06,24,17,05,19.10
2008,06,24,17,06,19.20
2008,06,24,17,07,19.20
2008,06,24,17,08,19.20
2008,06,24,17,09,19.20
2008,06,24,17,10,19.20
2008,06,24,17,11,19.10
2008,06,24,17,12,19.10
2008,06,24,17,13,19.20
2008,06,24,17,14,19.10
2008,06,24,17,15,19.00
2008,06,24,17,16,18.80
2008,06,24,17,17,18.80
2008,06,24,17,18,18.80
2008,06,24,17,19,18.60